[[{"header":{"parameterUnit":"m.s-1","parameterCategory":1,"la1":30.2991,"la2":30.254,"lo1":-89.0895,"lo2":-89.0444,"dy":0.0017,"dx":0.0017,"nx":28,"ny":28,"refTime":"2025-08-20T21:00:00:Z","depth":0,"parameterNumber":2,"parameterNumberName":"U-component_of_WINDS"},"data":[0,0,0,0,0,0,0,0,0,0,0,0,0,0,0,0,0,0,0,0,0,0,0,0,0,0,0,0,0,0,0,0,0,0,0,0,0,0,0,0,0,0,0,0,0,0,0,0,0,0,0,0,0,0,0,0,0,0,1.6946,1.6947,0,1.6991,1.6992,1.6992,1.701,1.701,1.701,1.7009,1.7056,1.7057,1.7059,0,0,0,0,0,0,0,0,0,0,0,0,0,1.6877,1.6878,1.6946,1.6947,1.6947,1.6991,1.6992,1.6992,1.701,1.701,1.701,1.7009,1.7056,1.7057,1.7059,0,0,0,0,0,0,0,0,0,0,0,0,0,1.6913,1.6878,1.6946,1.6961,1.6963,1.6991,1.6992,1.6992,1.701,1.701,1.7009,1.7009,1.7055,1.7057,1.7059,1.7075,0,0,1.7065,1.7066,0,0,0,0,0,0,0,0,1.6911,1.6915,1.6958,1.696,1.6962,1.6995,1.6984,1.702,1.701,1.6992,1.7009,1.7009,1.7036,1.7039,1.7048,1.7078,1.708,1.7066,1.7067,1.7068,1.7068,0,0,0,0,0,0,0,1.6908,1.6914,1.6964,1.6959,1.6961,1.6966,1.6971,1.6991,1.7014,1.6994,1.6995,1.7,1.7037,1.7046,1.705,1.708,1.7066,1.7067,1.7069,1.7069,1.7126,1.7127,0,0,0,0,0,0,1.6903,1.6911,1.6962,1.6965,1.6936,1.6968,1.6973,1.6984,1.7014,1.7019,1.7,1.7001,1.7043,1.7047,1.7051,1.7073,1.7068,1.707,1.7071,1.7126,1.7126,1.7127,0,0,0,0,0,0,1.6902,1.6908,1.6961,1.6939,1.6946,1.6969,1.6982,1.6985,1.6995,1.7019,1.7024,1.7005,1.7043,1.7048,1.7069,1.7075,1.707,1.7072,1.7126,1.7126,1.7127,1.7116,0,0,0,0,0,0,1.69,1.6907,1.6913,1.6939,1.6947,1.6978,1.6982,1.6986,1.6998,1.6999,1.7025,1.7029,1.7043,1.7066,1.7071,1.7078,1.7074,1.7125,1.7126,1.7126,1.7116,1.7116,1.7116,0,0,0,0,0,1.6897,1.6908,1.6913,1.6919,1.6955,1.6978,1.6983,1.6998,1.6999,1.7005,1.7021,1.7029,1.7073,1.7068,1.7074,1.7081,1.7125,1.7126,1.7126,1.7116,1.7116,1.7116,0,0,0,0,0,0,1.6882,1.6912,1.6918,1.6937,1.6955,1.6981,1.6989,1.6997,1.7016,1.7016,1.7035,1.704,1.706,1.7073,1.7067,1.7099,1.71,1.7102,1.709,1.709,1.709,1.7087,1.7076,0,0,0,0,0,1.6881,1.6897,1.6922,1.6937,1.6945,1.6966,1.6976,1.6987,1.7006,1.7014,1.7031,1.705,1.7068,1.708,1.7098,1.7118,1.7125,1.7126,1.7126,1.7126,1.7127,1.714,1.7141,1.7129,1.7129,1.7129,0,0,1.6879,1.6897,1.6906,1.6934,1.6949,1.6966,1.6972,1.6989,1.7002,1.7016,1.7038,1.7051,1.7073,1.7094,1.7104,1.7105,1.7132,1.7127,1.7126,1.7128,1.7141,1.7142,1.7143,1.7129,1.7129,1.7129,0,0,1.6884,1.6899,1.6913,1.6928,1.6951,1.6965,1.6968,1.6993,1.7003,1.7024,1.7036,1.7052,1.7083,1.7098,1.711,1.7122,1.7131,1.7128,1.7128,1.714,1.7141,1.7142,1.7147,1.7149,1.7129,1.7129,1.7129,0,1.6879,1.6904,1.692,1.6937,1.6949,1.6963,1.6979,1.6993,1.702,1.7029,1.703,1.707,1.7085,1.7111,1.7114,1.7123,1.7128,1.7125,1.714,1.7141,1.7142,1.7147,1.7149,1.7129,1.7129,1.7129,1.7129,0,1.6896,1.6914,1.6923,1.6949,1.6963,1.6979,1.6998,1.701,1.702,1.7033,1.7056,1.7075,1.7098,1.7105,1.7114,1.7132,1.7132,1.7136,1.7137,1.7143,1.7148,1.715,1.7128,1.7128,1.7129,1.7129,0,0,1.6893,1.6929,1.6932,1.6944,1.6971,1.6985,1.7002,1.7024,1.7035,1.7053,1.7069,1.7095,1.71,1.7113,1.7124,1.7135,1.7145,1.7138,1.7139,1.7139,1.7166,1.7164,1.7166,1.715,1.7151,1.7151,1.7165,0,1.6902,1.6932,1.6948,1.6972,1.6989,1.7003,1.7019,1.7037,1.705,1.7067,1.7082,1.7101,1.7105,1.7113,1.7124,1.7141,1.715,1.714,1.7165,1.7166,1.716,1.7168,1.7165,1.7177,1.7167,1.7167,1.7168,0,1.6916,1.6935,1.6961,1.6987,1.6994,1.7007,1.703,1.7045,1.7067,1.7076,1.7092,1.7103,1.7123,1.7123,1.715,1.7143,1.7154,1.7164,1.7165,1.7168,1.7167,1.7172,1.7181,1.7183,1.7171,1.717,1.717,0,1.6911,1.6943,1.6963,1.6974,1.7004,1.7013,1.7026,1.7048,1.7061,1.708,1.7089,1.7111,1.7123,1.714,1.7157,1.7155,1.7183,1.7184,1.7192,1.7192,1.7197,1.7197,1.7209,1.7204,1.7204,1.7204,1.7204,0,1.692,1.6935,1.6962,1.6974,1.6993,1.7011,1.7029,1.7043,1.7062,1.7078,1.7091,1.7106,1.7128,1.7146,1.7159,1.718,1.7186,1.7194,1.7198,1.7193,1.7192,1.7201,1.7201,1.7204,1.7204,1.7204,1.7204,0,1.6918,1.6936,1.6959,1.6986,1.6993,1.7006,1.7029,1.7042,1.7057,1.7077,1.7083,1.7106,1.7128,1.7147,1.7175,1.7184,1.7206,1.721,1.7199,1.7201,1.7208,1.7208,1.7227,1.7231,1.7222,1.7222,1.7222,0,1.6922,1.6935,1.6963,1.6975,1.6988,1.7006,1.702,1.7039,1.7052,1.7078,1.7088,1.7111,1.713,1.7164,1.7184,1.7206,1.7211,1.7217,1.7215,1.721,1.7212,1.7212,1.7213,1.7217,1.7217,1.7217,1.7217,0,1.6928,1.6937,1.6956,1.6978,1.6994,1.7012,1.7031,1.704,1.7062,1.7077,1.7099,1.7114,1.7144,1.7167,1.7191,1.7205,1.7215,1.7217,1.722,1.7216,1.7209,1.7214,1.72,1.7217,1.7217,1.7217,1.7217,1.7217,1.693,1.6942,1.6965,1.6985,1.7002,1.7019,1.7033,1.705,1.7069,1.7094,1.7104,1.7128,1.715,1.7184,1.7198,1.7217,1.7219,1.7223,1.7224,1.7225,1.7225,1.7206,1.7222,1.7222,1.7222,1.7222,1.7222,0,1.6938,1.6953,1.6972,1.6998,1.7015,1.7022,1.7044,1.7058,1.7078,1.7098,1.7117,1.7143,1.7165,1.7187,1.7211,1.7222,1.7227,1.7228,1.7227,1.7231,1.7222,1.7217,1.7223,1.7223,1.7223,1.7223,1.7223,1.7223,1.6943,1.6965,1.6976,1.7006,1.7022,1.7044,1.7056,1.7073,1.7089,1.7118,1.7137,1.7151,1.7172,1.7198,1.7219,1.7225,1.7233,1.7233,1.724,1.7231,1.7231,1.7231,1.7226,1.7234,1.7234,1.7247,1.7247,1.7247]},{"header":{"parameterUnit":"m.s-1","parameterCategory":1,"la1":30.2991,"la2":30.254,"lo1":-89.0895,"lo2":-89.0444,"dy":0.0017,"dx":0.0017,"nx":28,"ny":28,"refTime":"2025-08-20T21:00:00:Z","depth":0,"parameterNumber":3,"parameterNumberName":"V-component_of_WINDS"},"data":[0,0,0,0,0,0,0,0,0,0,0,0,0,0,0,0,0,0,0,0,0,0,0,0,0,0,0,0,0,0,0,0,0,0,0,0,0,0,0,0,0,0,0,0,0,0,0,0,0,0,0,0,0,0,0,0,0,0,0.1227,0.1226,0,0.1147,0.1146,0.1145,0.1106,0.1106,0.1106,0.1106,0.1022,0.102,0.1018,0,0,0,0,0,0,0,0,0,0,0,0,0,0.1345,0.1343,0.1227,0.1226,0.1225,0.1147,0.1146,0.1145,0.1106,0.1106,0.1106,0.1106,0.1023,0.1021,0.1018,0,0,0,0,0,0,0,0,0,0,0,0,0,0.1282,0.1343,0.1227,0.1196,0.1193,0.1147,0.1146,0.1145,0.1106,0.1106,0.1106,0.1106,0.1024,0.1021,0.1017,0.0996,0,0,0.1007,0.1006,0,0,0,0,0,0,0,0,0.1286,0.1278,0.1202,0.1199,0.1194,0.1137,0.1157,0.1095,0.1106,0.1139,0.1106,0.1106,0.106,0.1054,0.1039,0.0992,0.0989,0.1007,0.1005,0.1003,0.1002,0,0,0,0,0,0,0,0.129,0.1281,0.1195,0.1201,0.1196,0.1186,0.1177,0.1145,0.11,0.1136,0.1133,0.1124,0.1058,0.1042,0.1037,0.0987,0.1007,0.1004,0.1002,0.1001,0.0918,0.0918,0,0,0,0,0,0,0.13,0.1285,0.1198,0.1193,0.1241,0.1184,0.1174,0.1155,0.1101,0.1092,0.1124,0.1123,0.1048,0.1041,0.1033,0.1004,0.1003,0.1,0.0998,0.0918,0.0918,0.0918,0,0,0,0,0,0,0.1303,0.1293,0.1201,0.1238,0.1226,0.1182,0.1161,0.1153,0.1137,0.1092,0.1083,0.1116,0.1048,0.1038,0.1006,0.1001,0.0999,0.0996,0.0919,0.0918,0.0918,0.0946,0,0,0,0,0,0,0.1306,0.1294,0.1286,0.1238,0.1224,0.1175,0.1161,0.1152,0.1132,0.1129,0.1082,0.1074,0.1047,0.1011,0.1002,0.0996,0.0993,0.0919,0.0918,0.0918,0.0945,0.0947,0.0948,0,0,0,0,0,0.131,0.1296,0.1285,0.1275,0.1213,0.1175,0.1167,0.1136,0.1132,0.1123,0.1093,0.1076,0.1003,0.1008,0.0998,0.0991,0.0919,0.0918,0.0918,0.0945,0.0946,0.0948,0,0,0,0,0,0,0.1344,0.129,0.1277,0.1247,0.1216,0.1169,0.1156,0.1139,0.1108,0.1107,0.107,0.106,0.103,0.1007,0.1014,0.0966,0.0959,0.0957,0.0983,0.0984,0.0985,0.0991,0.099,0,0,0,0,0,0.1348,0.1322,0.1276,0.1254,0.1239,0.1201,0.1183,0.1162,0.1128,0.1115,0.1083,0.105,0.102,0.1001,0.097,0.0942,0.093,0.0932,0.0933,0.0934,0.0933,0.0915,0.0915,0.0917,0.0917,0.0917,0,0,0.1356,0.1323,0.1309,0.126,0.1234,0.1207,0.119,0.1163,0.1143,0.1111,0.1078,0.1053,0.1014,0.0984,0.0968,0.0963,0.093,0.0934,0.0935,0.0933,0.0915,0.0915,0.0914,0.0916,0.0916,0.0916,0,0,0.1356,0.133,0.1308,0.1282,0.1242,0.1216,0.1211,0.1166,0.1149,0.1115,0.1091,0.1066,0.1014,0.0987,0.0967,0.0957,0.0939,0.0948,0.0955,0.0938,0.0938,0.0938,0.0934,0.0933,0.0947,0.0947,0.0947,0,0.1371,0.1331,0.1299,0.1273,0.1252,0.1223,0.12,0.1176,0.1128,0.1114,0.1109,0.1044,0.1015,0.0978,0.0975,0.096,0.0952,0.0953,0.0941,0.094,0.0939,0.0935,0.0934,0.0948,0.0948,0.0948,0.0948,0,0.135,0.1323,0.131,0.1265,0.1243,0.1219,0.1183,0.1164,0.1145,0.112,0.1086,0.105,0.1012,0.1002,0.0983,0.0961,0.0959,0.0948,0.094,0.0941,0.0936,0.0934,0.095,0.0949,0.0949,0.0949,0,0,0.137,0.1307,0.1303,0.1282,0.1236,0.1213,0.1188,0.1151,0.1135,0.1103,0.108,0.1037,0.1026,0.1003,0.0981,0.0967,0.096,0.0957,0.0956,0.0959,0.0933,0.0941,0.094,0.0948,0.0948,0.0948,0.0936,0,0.1363,0.1317,0.1287,0.1252,0.1226,0.1197,0.1175,0.1143,0.1119,0.1093,0.1065,0.1035,0.1024,0.101,0.0994,0.0964,0.0955,0.0965,0.0926,0.0925,0.0936,0.0937,0.0946,0.0937,0.0934,0.0934,0.0933,0,0.135,0.1319,0.1281,0.1237,0.1225,0.1206,0.1169,0.1144,0.1108,0.1091,0.1065,0.1043,0.1014,0.1009,0.0968,0.0975,0.0958,0.0941,0.094,0.0934,0.0929,0.0932,0.0933,0.0932,0.093,0.0931,0.0931,0,0.1367,0.1316,0.1286,0.1269,0.1218,0.1204,0.1182,0.1146,0.1125,0.1093,0.1079,0.1044,0.1025,0.0998,0.0966,0.0965,0.0928,0.092,0.0913,0.0913,0.0906,0.0907,0.0904,0.0895,0.0895,0.0896,0.0896,0,0.1363,0.1341,0.1293,0.1275,0.1249,0.1216,0.1191,0.1166,0.1134,0.111,0.1083,0.1061,0.1021,0.0994,0.0969,0.0938,0.093,0.0915,0.0908,0.0917,0.0919,0.0904,0.0904,0.0895,0.0895,0.0895,0.0895,0,0.1377,0.1345,0.1311,0.1265,0.1252,0.1235,0.1196,0.1176,0.1151,0.1121,0.1112,0.1071,0.1037,0.1003,0.0958,0.0941,0.0911,0.0903,0.0924,0.092,0.0914,0.0915,0.0902,0.0898,0.0893,0.0893,0.0893,0,0.1376,0.1359,0.1311,0.1293,0.1272,0.1243,0.1222,0.1188,0.1167,0.1124,0.111,0.1075,0.1045,0.0993,0.0959,0.0924,0.0914,0.0912,0.0908,0.0917,0.0913,0.0914,0.0912,0.0913,0.0913,0.0913,0.0913,0,0.1378,0.1363,0.1334,0.1299,0.1275,0.1245,0.1215,0.1202,0.1162,0.114,0.1105,0.1082,0.1036,0.1001,0.0962,0.0938,0.0919,0.0915,0.0911,0.0919,0.0932,0.0924,0.0927,0.0915,0.0915,0.0915,0.0915,0.0915,0.1384,0.1367,0.1331,0.1299,0.1273,0.1245,0.1225,0.1196,0.1167,0.1128,0.1109,0.1075,0.1038,0.0984,0.096,0.0932,0.0927,0.0922,0.092,0.092,0.0921,0.0937,0.0925,0.0925,0.0925,0.0925,0.0925,0,0.1384,0.1359,0.133,0.1289,0.1264,0.1249,0.1214,0.1194,0.1164,0.1132,0.1103,0.1063,0.1029,0.0993,0.0956,0.0941,0.0931,0.0932,0.0933,0.0927,0.0929,0.0935,0.0941,0.0941,0.0941,0.0941,0.0941,0.0941,0.1381,0.1351,0.1331,0.1287,0.1262,0.1229,0.121,0.1184,0.1159,0.1116,0.1087,0.1064,0.103,0.099,0.0958,0.0948,0.0936,0.094,0.0927,0.0929,0.0927,0.0926,0.0932,0.0937,0.0937,0.0928,0.0928,0.0928]}]]